Content
SEND FEEDBACK

Daily
Averages
Monthly
Summary
United States of America

UNIONTOWN, WASHINGTON


Home > North America > United States > Washington
Elevation: 1349 feet     Latitude: 46 23N     Longitude: 117 01W

WEATHER
 
SELECT A DAY
Number of Records: 187,044;   Date Range: 1/1/95 - 7/7/14
 
SHARE

PRINT THIS DATA

[ ← Previous Day ]
WEATHER ALMANAC - JANUARY 2, 2013
[ Next Day → ]
[ °C ]   °F
Weather ElementAverageHighLow
Temperature28.5 °F32 °F (12:56 pm)24.1 °F (11:56 pm)
Dewpoint18.2 °F19.9 °F (1:56 am)15.1 °F (11:56 pm)
Humidity65.3 %72 % (3:56 am)56 % (12:56 pm)
Barometer30.57 in30.62 in (2:56 am)30.50 in (4:56 pm)
Wind Speed5.6 mph12.7 mph (9:56 am)
Weather ElementAverage
Visibility10 mi
Wind DirectionESE (115 °)

Weather ElementTotal
Precipitation---
Heating Degree Days37 (Base 65)
Averaged from 26 records on January 2, 2013
WEATHER CONDITIONS BREAKOUT
WIND DIRECTION BREAKOUT
WEATHER BY HOUR - JANUARY 2, 2013
[ °C ]   °F
Local TimeTemperatureDewpointHumidityBarometerVisibilityWind DirectionWind SpeedGust SpeedPrecipitationEventsConditions
1:56 AM28.9 °F19.9 °F69 %30.61 in10.0 miCalmOvercast
2:56 AM28.9 °F19.9 °F69 %30.62 in10.0 miCalmOvercast
3:56 AM28.0 °F19.9 °F72 %30.62 in10.0 miCalmOvercast
4:56 AM28.0 °F19.9 °F72 %30.61 in10.0 miCalmOvercast
5:56 AM28.0 °F19.0 °F69 %30.60 in10.0 miSSE (160°)3.5 mphOvercast
6:15 AM28.4 °F19.4 °F69 %30.54 in10.0 miCalmOvercast
6:56 AM28.0 °F18.0 °F66 %30.60 in10.0 miSouth (170°)5.8 mphOvercast
7:03 AM28.4 °F17.6 °F64 %30.54 in10.0 miSouth (170°)5.8 mphOvercast
7:38 AM28.4 °F19.4 °F69 %30.54 in10.0 miSSE (160°)4.6 mphMostly Cloudy
7:56 AM28.0 °F19.0 °F69 %30.59 in10.0 miESE (110°)3.5 mphMostly Cloudy
8:56 AM28.0 °F18.0 °F66 %30.60 in10.0 miSSE (160°)5.8 mphMostly Cloudy
9:56 AM28.9 °F18.0 °F64 %30.60 in10.0 miSouth (170°)12.7 mphScattered Clouds
10:56 AM30.9 °F18.0 °F59 %30.60 in10.0 miSouth (170°)12.7 mphPartly Cloudy
11:56 AM30.9 °F18.0 °F59 %30.58 in10.0 miVariable4.6 mphClear
12:56 PM32.0 °F18.0 °F56 %30.57 in10.0 miSE (130°)9.2 mphClear
1:56 PM32.0 °F18.0 °F56 %30.56 in10.0 miSE (140°)8.1 mphClear
2:56 PM32.0 °F18.0 °F56 %30.56 in10.0 miSSE (150°)10.4 mphClear
3:56 PM30.0 °F19.0 °F64 %30.57 in10.0 miSE (130°)9.2 mphClear
4:56 PM28.4 °F17.6 °F64 %30.50 in10.0 miSE (130°)6.9 mphClear
5:56 PM27.0 °F18.0 °F69 %30.55 in10.0 miSE (140°)6.9 mphClear
6:56 PM27.0 °F18.0 °F69 %30.55 in10.0 miSE (140°)5.8 mphClear
7:56 PM28.0 °F17.1 °F63 %30.53 in10.0 miSE (130°)5.8 mphClear
8:56 PM28.0 °F17.1 °F63 %30.53 in10.0 miEast (100°)5.8 mphClear
9:56 PM27.0 °F16.0 °F63 %30.52 in10.0 miSSW (210°)8.1 mphClear
10:56 PM25.0 °F16.0 °F69 %30.51 in10.0 miSE (130°)5.8 mphClear
11:56 PM24.1 °F15.1 °F69 %30.51 in10.0 miSouth (190°)4.6 mphClear
Hourly data recorded from KLWS, located miles away from Uniontown, Washington







STORIES FROM OUR PARTNERS